{"data":{"norad_id":68001,"epoch":"2026-09-19T15:47:07.046880Z","epoch_age_seconds":132452,"freshness":"FRESH","line1":"1 68001U 26039R   26262.65772045  .00016213  00000+0  59697-3 0  9990","line2":"2 68001  42.9999  33.9103 0001612 286.0520  74.0154 15.27603862 31365","mean_motion":15.27603862,"eccentricity":0.0001612,"inclination_deg":42.9999,"raan_deg":33.9103,"arg_perigee_deg":286.052,"mean_anomaly_deg":74.0154,"bstar":0.00059697,"rev_number":3136,"period_min":94.265276215962,"perigee_km":481.87163387657,"apogee_km":484.0836572383,"semimajor_km":6861.1146455574,"source":"CELESTRAK","updated_at":"2026-09-20T09:00:43.737817Z"}}